YS1AHL-32 Weather Reports


Display with metric or nautical units.
time (UTC)temp
F
wind
direction
speed
MPH
gust
MPH
rain 1hr
in
rain 24hr
in
rain mn
in
humidity
%
barometer
mb
20260510230413 53 297 10.0 15.0 0.00 0.00 0.00 44 1012.0
20260510230313 53 297 10.0 15.0 0.00 0.00 0.00 44 1012.0
20260510225412 54 297 10.0 15.0 0.00 0.00 0.00 44 1013.0
20260510225312 54 297 10.0 15.0 0.00 0.00 0.00 44 1013.0
20260510224412 54 297 10.0 15.0 0.00 0.00 0.00 44 1013.0
20260510224311 54 297 10.0 15.0 0.00 0.00 0.00 44 1013.0
20260510223411 55 297 10.0 15.0 0.00 0.00 0.00 44 1013.0
20260510223311 55 297 10.0 15.0 0.00 0.00 0.00 44 1013.0
20260510222410 56 297 10.0 16.0 0.00 0.00 0.00 44 1012.0
20260510221410 49 274 8.0 18.0 0.00 0.00 0.00 49 1011.0
20260510221309 49 274 8.0 18.0 0.00 0.00 0.00 49 1011.0
20260510220409 50 274 8.0 18.0 0.00 0.00 0.00 49 1011.0
20260510220309 50 274 8.0 18.0 0.00 0.00 0.00 49 1011.0
20260510215408 51 274 8.0 18.0 0.00 0.00 0.00 49 1012.0
20260510215308 51 274 8.0 18.0 0.00 0.00 0.00 49 1012.0
20260510214408 52 274 8.0 18.0 0.00 0.00 0.00 49 1012.0
20260510214307 52 274 8.0 18.0 0.00 0.00 0.00 49 1012.0
20260510213407 53 274 8.0 18.0 0.00 0.00 0.00 49 1012.0
20260510213307 53 274 8.0 18.0 0.00 0.00 0.00 49 1012.0
20260510212406 54 274 8.0 18.0 0.00 0.00 0.00 49 1011.0
20260510212306 54 274 8.0 18.0 0.00 0.00 0.00 49 1011.0
20260510211406 55 274 8.0 18.0 0.00 0.00 0.00 49 1011.0
20260510211305 55 274 8.0 18.0 0.00 0.00 0.00 49 1011.0
20260510210405 56 274 8.0 18.0 0.00 0.00 0.00 49 1011.0
20260510210305 56 274 8.0 18.0 0.00 0.00 0.00 49 1011.0
20260510205404 57 274 8.0 18.0 0.00 0.00 0.00 49 1011.0
20260510205306 57 274 8.0 18.0 0.00 0.00 0.00 49 1011.0
20260510204404 51 259 7.0 15.0 0.00 0.00 0.00 55 1011.0
20260510204303 51 259 7.0 15.0 0.00 0.00 0.00 55 1011.0
20260510203403 52 259 7.0 15.0 0.00 0.00 0.00 55 1010.0
20260510203303 52 259 7.0 15.0 0.00 0.00 0.00 55 1010.0
20260510202402 52 259 7.0 15.0 0.00 0.00 0.00 55 1010.0
20260510202305 52 259 7.0 15.0 0.00 0.00 0.00 55 1010.0
20260510201402 53 259 7.0 15.0 0.00 0.00 0.00 55 1010.0
20260510201302 53 259 7.0 15.0 0.00 0.00 0.00 55 1010.0
20260510200401 54 259 7.0 15.0 0.00 0.00 0.00 55 1010.0
20260510200301 54 259 7.0 15.0 0.00 0.00 0.00 55 1010.0
20260510195401 55 259 7.0 15.0 0.00 0.00 0.00 55 1011.0
20260510195300 55 259 7.0 15.0 0.00 0.00 0.00 55 1011.0
20260510194400 56 259 7.0 16.0 0.00 0.00 0.00 55 1011.0
20260510194300 56 259 7.0 16.0 0.00 0.00 0.00 55 1011.0
20260510193359 48 248 7.0 17.0 0.00 0.00 0.00 66 1011.0
20260510193259 48 248 7.0 17.0 0.00 0.00 0.00 66 1011.0
20260510192359 49 248 7.0 17.0 0.00 0.00 0.00 66 1011.0
20260510192259 49 248 7.0 17.0 0.00 0.00 0.00 66 1011.0
20260510191358 50 248 7.0 17.0 0.00 0.00 0.00 66 1011.0
20260510191258 50 248 7.0 17.0 0.00 0.00 0.00 66 1011.0
20260510190358 51 248 7.0 17.0 0.00 0.00 0.00 66 1011.0
20260510190258 51 248 7.0 17.0 0.00 0.00 0.00 66 1011.0
20260510185357 52 248 7.0 17.0 0.00 0.00 0.00 66 1011.0
20260510185257 52 248 7.0 17.0 0.00 0.00 0.00 66 1011.0
20260510184356 53 248 7.0 17.0 0.00 0.00 0.00 66 1011.0
20260510184256 53 248 7.0 17.0 0.00 0.00 0.00 66 1011.0
20260510183355 54 248 7.0 17.0 0.00 0.00 0.00 66 1011.0
20260510183255 54 248 7.0 17.0 0.00 0.00 0.00 66 1011.0
20260510182355 48 219 10.0 15.0 0.00 0.00 0.00 70 1011.0
20260510182255 48 219 10.0 15.0 0.00 0.00 0.00 70 1011.0
20260510181354 49 219 10.0 15.0 0.00 0.00 0.00 70 1011.0
20260510181254 49 219 10.0 15.0 0.00 0.00 0.00 70 1011.0
20260510180354 50 219 10.0 15.0 0.00 0.00 0.00 70 1011.0
20260510180253 50 219 10.0 15.0 0.00 0.00 0.00 70 1011.0
20260510175353 51 219 10.0 15.0 0.00 0.00 0.00 70 1011.0
20260510175252 51 219 10.0 15.0 0.00 0.00 0.00 70 1011.0
20260510174252 52 219 10.0 15.0 0.00 0.00 0.00 70 1011.0
20260510173351 47 218 8.0 18.0 0.00 0.00 0.00 73 1011.0
20260510173251 47 218 8.0 18.0 0.00 0.00 0.00 73 1011.0
20260510172350 47 218 8.0 18.0 0.00 0.00 0.00 73 1011.0
20260510172250 47 218 8.0 18.0 0.00 0.00 0.00 73 1011.0
20260510171350 48 218 8.0 18.0 0.00 0.00 0.00 73 1011.0
20260510171250 48 218 8.0 18.0 0.00 0.00 0.00 73 1011.0
20260510170349 49 218 8.0 18.0 0.00 0.00 0.00 73 1011.0
20260510170249 49 218 8.0 18.0 0.00 0.00 0.00 73 1011.0
20260510165349 50 218 8.0 18.0 0.01 0.00 0.00 73 1011.0
20260510165248 50 218 8.0 18.0 0.01 0.00 0.00 73 1011.0
20260510164347 51 218 8.0 18.0 0.00 0.00 0.00 73 1011.0
20260510163347 52 218 9.0 18.0 0.00 0.00 0.00 73 1011.0
20260510163247 52 218 9.0 18.0 0.00 0.00 0.00 73 1011.0
20260510162346 49 239 11.0 18.0 0.00 0.00 0.00 70 1011.0
20260510162246 49 239 11.0 18.0 0.00 0.00 0.00 70 1011.0
20260510161344 50 239 11.0 18.0 0.00 0.00 0.00 70 1011.0
20260510161244 50 239 11.0 18.0 0.00 0.00 0.00 70 1011.0
20260510160344 51 239 11.0 18.0 0.00 0.00 0.00 70 1011.0
20260510160244 51 239 11.0 18.0 0.00 0.00 0.00 70 1011.0
20260510155343 52 239 12.0 18.0 0.00 0.00 0.00 70 1011.0
20260510155243 52 239 12.0 18.0 0.00 0.00 0.00 70 1011.0
20260510154342 49 240 11.0 18.0 0.00 0.00 0.00 71 1011.0
20260510154242 49 240 11.0 18.0 0.00 0.00 0.00 71 1011.0
20260510153342 50 240 11.0 18.0 0.00 0.00 0.00 71 1011.0
20260510153241 50 240 11.0 18.0 0.00 0.00 0.00 71 1011.0
20260510152341 51 240 11.0 18.0 0.00 0.00 0.00 71 1011.0
20260510152240 51 240 11.0 18.0 0.00 0.00 0.00 71 1011.0
20260510151340 52 240 11.0 19.0 0.00 0.00 0.00 71 1011.0
20260510151240 52 240 11.0 19.0 0.00 0.00 0.00 71 1011.0
20260510150339 48 229 10.0 18.0 0.00 0.00 0.00 68 1011.0
20260510150239 48 229 10.0 18.0 0.00 0.00 0.00 68 1011.0
20260510145339 49 229 10.0 18.0 0.00 0.00 0.00 68 1011.0
20260510145239 49 229 10.0 18.0 0.00 0.00 0.00 68 1011.0
20260510144338 50 229 10.0 18.0 0.00 0.00 0.00 68 1011.0
20260510144238 50 229 10.0 18.0 0.00 0.00 0.00 68 1011.0
20260510143338 51 229 10.0 18.0 0.00 0.00 0.00 68 1011.0
20260510143237 51 229 10.0 18.0 0.00 0.00 0.00 68 1011.0
20260510142337 52 229 10.0 19.0 0.01 0.00 0.00 68 1010.0
20260510142237 52 229 10.0 19.0 0.01 0.00 0.00 68 1010.0
20260510141336 48 207 8.0 18.0 0.00 0.00 0.00 74 1010.0
20260510141236 48 207 8.0 18.0 0.00 0.00 0.00 74 1010.0
20260510140335 49 207 8.0 18.0 0.00 0.00 0.00 74 1010.0
20260510140235 49 207 8.0 18.0 0.00 0.00 0.00 74 1010.0
20260510135335 50 207 8.0 18.0 0.00 0.00 0.00 74 1010.0
20260510135235 50 207 8.0 18.0 0.00 0.00 0.00 74 1010.0
20260510134334 51 207 8.0 18.0 0.00 0.00 0.00 74 1010.0
20260510134234 51 207 8.0 18.0 0.00 0.00 0.00 74 1010.0
20260510133334 52 207 8.0 18.0 0.00 0.00 0.00 74 1010.0
20260510133233 52 207 8.0 18.0 0.00 0.00 0.00 74 1010.0
20260510132333 53 207 8.0 18.0 0.00 0.00 0.00 74 1010.0
20260510132233 53 207 8.0 18.0 0.00 0.00 0.00 74 1010.0
20260510131333 54 207 9.0 19.0 0.00 0.00 0.00 74 1010.0
20260510131232 54 207 9.0 19.0 0.00 0.00 0.00 74 1010.0
20260510130332 47 192 8.0 20.0 0.00 0.00 0.00 82 1010.0
20260510130232 47 192 8.0 20.0 0.00 0.00 0.00 82 1010.0
20260510125332 48 192 8.0 20.0 0.00 0.00 0.00 82 1010.0
20260510125231 48 192 8.0 20.0 0.00 0.00 0.00 82 1010.0
20260510124331 49 192 8.0 20.0 0.00 0.00 0.00 82 1010.0
20260510124231 49 192 8.0 20.0 0.00 0.00 0.00 82 1010.0
20260510123330 50 192 8.0 20.0 0.00 0.00 0.00 82 1010.0
20260510123230 50 192 8.0 20.0 0.00 0.00 0.00 82 1010.0
20260510122329 51 192 8.0 20.0 0.00 0.00 0.00 82 1010.0
20260510122229 51 192 8.0 20.0 0.00 0.00 0.00 82 1010.0
20260510121329 52 192 9.0 20.0 0.00 0.00 0.00 82 1010.0
20260510121228 52 192 9.0 20.0 0.00 0.00 0.00 82 1010.0
20260510120328 46 192 8.0 20.0 0.00 0.00 0.00 82 1010.0
20260510120228 46 192 8.0 20.0 0.00 0.00 0.00 82 1010.0
20260510115327 47 192 8.0 20.0 0.00 0.00 0.00 82 1010.0
20260510115227 47 192 8.0 20.0 0.00 0.00 0.00 82 1010.0
20260510114326 48 192 9.0 20.0 0.00 0.00 0.00 82 1010.0
20260510114226 48 192 9.0 20.0 0.00 0.00 0.00 82 1010.0
20260510113326 43 182 8.0 24.0 0.00 0.00 0.00 90 1010.0
20260510113226 43 182 8.0 24.0 0.00 0.00 0.00 90 1010.0
20260510112325 44 182 8.0 24.0 0.00 0.00 0.00 90 1009.0
20260510112225 44 182 8.0 24.0 0.00 0.00 0.00 90 1009.0
20260510111325 45 182 8.0 24.0 0.00 0.00 0.00 90 1009.0
20260510111225 45 182 8.0 24.0 0.00 0.00 0.00 90 1009.0
20260510110324 46 182 8.0 24.0 0.00 0.00 0.00 90 1009.0
20260510110224 46 182 8.0 24.0 0.00 0.00 0.00 90 1009.0
20260510105324 47 182 8.0 24.0 0.00 0.00 0.00 90 1009.0
20260510105223 47 182 8.0 24.0 0.00 0.00 0.00 90 1009.0
20260510104323 48 182 8.0 24.0 0.00 0.00 0.00 90 1009.0
20260510104222 48 182 8.0 24.0 0.00 0.00 0.00 90 1009.0
20260510103322 40 163 8.0 28.0 0.00 0.00 0.00 94 1009.0
20260510103222 40 163 8.0 28.0 0.00 0.00 0.00 94 1009.0
20260510102321 41 163 8.0 28.0 0.00 0.00 0.00 94 1009.0
20260510102222 41 163 8.0 28.0 0.00 0.00 0.00 94 1009.0
20260510101321 42 163 8.0 28.0 0.00 0.00 0.00 94 1009.0
20260510101221 42 163 8.0 28.0 0.00 0.00 0.00 94 1009.0
20260510100320 43 163 8.0 28.0 0.00 0.00 0.00 94 1009.0
20260510100220 43 163 8.0 28.0 0.00 0.00 0.00 94 1009.0
20260510095320 44 163 8.0 28.0 0.00 0.00 0.00 94 1009.0
20260510095220 44 163 8.0 28.0 0.00 0.00 0.00 94 1009.0
20260510094319 45 163 8.0 28.0 0.00 0.00 0.00 94 1009.0
20260510094219 45 163 8.0 28.0 0.00 0.00 0.00 94 1009.0
20260510093319 46 163 8.0 28.0 0.00 0.00 0.00 94 1009.0
20260510093218 46 163 8.0 28.0 0.00 0.00 0.00 94 1009.0
20260510092318 47 163 8.0 28.0 0.01 0.00 0.00 94 1008.0
20260510092218 47 163 8.0 28.0 0.01 0.00 0.00 94 1008.0
20260510091317 48 163 9.0 28.0 0.00 0.00 0.00 94 1008.0
20260510091217 48 163 9.0 28.0 0.00 0.00 0.00 94 1008.0
20260510090317 39 150 8.0 24.0 0.01 0.00 0.00 90 1008.0
20260510090216 39 150 8.0 24.0 0.01 0.00 0.00 90 1008.0
20260510085316 40 150 8.0 24.0 0.01 0.00 0.00 90 1008.0
20260510085216 40 150 8.0 24.0 0.01 0.00 0.00 90 1008.0
20260510084315 41 150 8.0 24.0 0.00 0.00 0.00 90 1008.0
20260510084215 41 150 8.0 24.0 0.00 0.00 0.00 90 1008.0
20260510083315 42 150 8.0 24.0 0.00 0.00 0.00 90 1008.0
20260510083214 42 150 8.0 24.0 0.00 0.00 0.00 90 1008.0
20260510082314 43 150 8.0 24.0 0.00 0.00 0.00 90 1009.0
20260510082214 43 150 8.0 24.0 0.00 0.00 0.00 90 1009.0
20260510081313 43 150 8.0 24.0 0.00 0.00 0.00 90 1009.0
20260510081213 43 150 8.0 24.0 0.00 0.00 0.00 90 1009.0
20260510080313 44 150 8.0 24.0 0.00 0.00 0.00 90 1009.0
20260510080213 44 150 8.0 24.0 0.00 0.00 0.00 90 1009.0
20260510075312 45 150 8.0 24.0 0.00 0.00 0.00 90 1009.0
20260510075212 45 150 8.0 24.0 0.00 0.00 0.00 90 1009.0
20260510074312 46 150 8.0 24.0 0.00 0.00 0.00 90 1009.0
20260510074211 46 150 8.0 24.0 0.00 0.00 0.00 90 1009.0
20260510073311 47 150 8.0 24.0 0.00 0.00 0.00 90 1009.0
20260510073211 47 150 8.0 24.0 0.00 0.00 0.00 90 1009.0
20260510072311 48 150 9.0 24.0 0.00 0.00 0.00 90 1009.0
20260510072210 48 150 9.0 24.0 0.00 0.00 0.00 90 1009.0
20260510071310 37 156 8.0 28.0 0.00 0.00 0.00 91 1009.0
20260510071209 37 156 8.0 28.0 0.00 0.00 0.00 91 1009.0
20260510070309 38 156 8.0 28.0 0.00 0.00 0.00 91 1009.0
20260510070209 38 156 8.0 28.0 0.00 0.00 0.00 91 1009.0
20260510065309 39 156 8.0 28.0 0.00 0.00 0.00 91 1009.0
20260510065208 39 156 8.0 28.0 0.00 0.00 0.00 91 1009.0
20260510064308 40 156 8.0 28.0 0.00 0.00 0.00 91 1009.0
20260510064208 40 156 8.0 28.0 0.00 0.00 0.00 91 1009.0
20260510063307 41 156 8.0 28.0 0.00 0.00 0.00 91 1009.0
20260510063207 41 156 8.0 28.0 0.00 0.00 0.00 91 1009.0
20260510062307 42 156 8.0 28.0 0.00 0.00 0.00 91 1009.0
20260510062207 42 156 8.0 28.0 0.00 0.00 0.00 91 1009.0
20260510061306 43 156 8.0 28.0 0.00 0.00 0.00 91 1009.0
20260510061206 43 156 8.0 28.0 0.00 0.00 0.00 91 1009.0
20260510060306 44 156 8.0 28.0 0.00 0.00 0.00 91 1009.0
20260510060205 44 156 8.0 28.0 0.00 0.00 0.00 91 1009.0
20260510055307 45 156 8.0 28.0 0.00 0.00 0.00 91 1009.0
20260510055205 45 156 8.0 28.0 0.00 0.00 0.00 91 1009.0
20260510054304 46 156 8.0 28.0 0.00 0.00 0.00 91 1009.0
20260510054204 46 156 8.0 28.0 0.00 0.00 0.00 91 1009.0
20260510053304 47 156 9.0 28.0 0.00 0.00 0.00 91 1009.0
20260510053203 47 156 9.0 28.0 0.00 0.00 0.00 91 1009.0
20260510052306 36 144 8.0 31.0 0.00 0.00 0.00 92 1009.0
20260510052203 36 144 8.0 31.0 0.00 0.00 0.00 92 1009.0
20260510051302 37 144 8.0 31.0 0.00 0.00 0.00 92 1009.0
20260510051202 37 144 8.0 31.0 0.00 0.00 0.00 92 1009.0
20260510050302 38 144 8.0 31.0 0.00 0.00 0.00 92 1009.0
20260510050202 38 144 8.0 31.0 0.00 0.00 0.00 92 1009.0
20260510045305 38 144 8.0 31.0 0.00 0.00 0.00 92 1009.0
20260510045201 38 144 8.0 31.0 0.00 0.00 0.00 92 1009.0
20260510044300 39 144 8.0 31.0 0.00 0.00 0.00 92 1009.0
20260510044200 39 144 8.0 31.0 0.00 0.00 0.00 92 1009.0
20260510043300 40 144 8.0 31.0 0.00 0.00 0.00 92 1009.0
20260510043200 40 144 8.0 31.0 0.00 0.00 0.00 92 1009.0
20260510042300 41 144 8.0 31.0 0.00 0.00 0.00 92 1009.0
20260510042159 41 144 8.0 31.0 0.00 0.00 0.00 92 1009.0
20260510041259 42 144 8.0 31.0 0.00 0.00 0.00 92 1009.0
20260510041159 42 144 8.0 31.0 0.00 0.00 0.00 92 1009.0
20260510040258 43 144 8.0 31.0 0.00 0.00 0.00 92 1009.0
20260510040158 43 144 8.0 31.0 0.00 0.00 0.00 92 1009.0
20260510035258 44 144 8.0 31.0 0.00 0.00 0.00 92 1009.0
20260510035158 44 144 8.0 31.0 0.00 0.00 0.00 92 1009.0
20260510034257 45 144 8.0 31.0 0.00 0.00 0.00 92 1009.0
20260510034157 45 144 8.0 31.0 0.00 0.00 0.00 92 1009.0
20260510033257 46 144 8.0 31.0 0.00 0.00 0.00 92 1009.0
20260510033157 46 144 8.0 31.0 0.00 0.00 0.00 92 1009.0
20260510032256 47 144 9.0 31.0 0.00 0.00 0.00 92 1009.0
20260510032156 47 144 9.0 31.0 0.00 0.00 0.00 92 1009.0
20260510031255 37 143 8.0 27.0 0.00 0.00 0.00 85 1009.0
20260510031155 37 143 8.0 27.0 0.00 0.00 0.00 85 1009.0
20260510030255 38 143 8.0 27.0 0.00 0.00 0.00 85 1009.0
20260510030154 38 143 8.0 27.0 0.00 0.00 0.00 85 1009.0
20260510025254 39 143 8.0 27.0 0.00 0.00 0.00 85 1009.0
20260510025154 39 143 8.0 27.0 0.00 0.00 0.00 85 1009.0
20260510024254 40 143 8.0 27.0 0.00 0.00 0.00 85 1009.0
20260510024153 40 143 8.0 27.0 0.00 0.00 0.00 85 1009.0
20260510023253 41 143 8.0 27.0 0.00 0.00 0.00 85 1009.0
20260510023153 41 143 8.0 27.0 0.00 0.00 0.00 85 1009.0
20260510022252 42 143 8.0 27.0 0.00 0.00 0.00 85 1010.0
20260510022152 42 143 8.0 27.0 0.00 0.00 0.00 85 1010.0
20260510021252 43 143 8.0 27.0 0.00 0.00 0.00 85 1010.0
20260510021151 43 143 8.0 27.0 0.00 0.00 0.00 85 1010.0
20260510020251 44 143 8.0 27.0 0.00 0.00 0.00 85 1010.0
20260510020151 44 143 8.0 27.0 0.00 0.00 0.00 85 1010.0
20260510015250 45 143 8.0 27.0 0.00 0.00 0.00 85 1010.0
20260510015150 45 143 8.0 27.0 0.00 0.00 0.00 85 1010.0
20260510014250 46 143 8.0 27.0 0.00 0.00 0.00 85 1010.0
20260510014150 46 143 8.0 27.0 0.00 0.00 0.00 85 1010.0
20260510013249 47 143 8.0 27.0 0.00 0.00 0.00 85 1010.0
20260510013149 47 143 8.0 27.0 0.00 0.00 0.00 85 1010.0
20260510012249 40 162 8.0 18.0 0.00 0.00 0.00 65 1010.0
20260510012148 40 162 8.0 18.0 0.00 0.00 0.00 65 1010.0
20260510011248 41 162 8.0 18.0 0.00 0.00 0.00 65 1010.0
20260510011148 41 162 8.0 18.0 0.00 0.00 0.00 65 1010.0
20260510010147 41 162 8.0 18.0 0.00 0.00 0.00 65 1010.0
20260510005247 42 162 8.0 18.0 0.00 0.00 0.00 65 1010.0
20260510005147 42 162 8.0 18.0 0.00 0.00 0.00 65 1010.0
20260510004246 43 162 8.0 18.0 0.00 0.00 0.00 65 1010.0
20260510004146 43 162 8.0 18.0 0.00 0.00 0.00 65 1010.0
20260510003246 44 162 8.0 18.0 0.00 0.00 0.00 65 1010.0
20260510003146 44 162 8.0 18.0 0.00 0.00 0.00 65 1010.0
20260510002246 45 162 8.0 18.0 0.00 0.00 0.00 65 1009.0
20260510002145 45 162 8.0 18.0 0.00 0.00 0.00 65 1009.0
20260510001245 46 162 8.0 18.0 0.00 0.00 0.00 65 1009.0
20260510001145 46 162 8.0 18.0 0.00 0.00 0.00 65 1009.0
20260510000244 47 162 8.0 18.0 0.00 0.00 0.00 65 1009.0
20260510000144 47 162 8.0 18.0 0.00 0.00 0.00 65 1009.0
20260509235244 48 162 8.0 18.0 0.00 0.00 0.00 65 1009.0
20260509235143 48 162 8.0 18.0 0.00 0.00 0.00 65 1009.0
20260509234243 49 162 8.0 18.0 0.00 0.00 0.00 65 1009.0
20260509234143 49 162 8.0 18.0 0.00 0.00 0.00 65 1009.0
20260509233242 50 162 8.0 18.0 0.00 0.00 0.00 65 1009.0
20260509233142 50 162 8.0 18.0 0.00 0.00 0.00 65 1009.0
20260509232242 51 162 8.0 18.0 0.00 0.00 0.00 65 1009.0
20260509232142 51 162 8.0 18.0 0.00 0.00 0.00 65 1009.0
20260509231241 51 162 8.0 18.0 0.00 0.00 0.00 65 1009.0
20260509231141 51 162 8.0 18.0 0.00 0.00 0.00 65 1009.0